• în România
  • Lista ţărilor
  • Pe 7 zile
  • Temperatura apei
  • Hartă satelitară
  • Meteo pe hartă
  • Widget-uri
  • user-avatar
    Intrare

    Meteo pe oră la Burgas

    Astăzi, 20 Octombrie, Vineri

    Timp Temperatura Precipitaţii Vânt Presiune Umiditate
    00:00 +18°C° 0 mm 1 m/s 761 mmHg 64%
    01:00 +18°C° 0 mm 1 m/s 761 mmHg 64%
    02:00 +16°C° 0 mm 1 m/s 761 mmHg 64%
    03:00 +16°C° 0 mm 1 m/s 761 mmHg 63%
    04:00 +16°C° 0 mm 1 m/s 761 mmHg 63%
    05:00 +16°C° 0 mm 1 m/s 761 mmHg 62%
    06:00 +18°C° 0 mm 1 m/s 761 mmHg 60%
    07:00 +18°C° 0 mm 1 m/s 761 mmHg 57%
    08:00 +19°C° 0 mm 1 m/s 761 mmHg 55%
    09:00 +21°C° 0 mm 1 m/s 761 mmHg 48%
    10:00 +24°C° 0 mm 1 m/s 761 mmHg 41%
    11:00 +26°C° 0 mm 1 m/s 761 mmHg 34%
    12:00 +27°C° 0 mm 1 m/s 761 mmHg 32%
    13:00 +27°C° 0 mm 1 m/s 761 mmHg 29%
    14:00 +28°C° 0 mm 1 m/s 761 mmHg 27%
    15:00 +27°C° 0 mm 1 m/s 761 mmHg 31%
    16:00 +25°C° 0 mm 2 m/s 760 mmHg 34%
    17:00 +24°C° 0 mm 2 m/s 760 mmHg 37%
    18:00 +23°C° 0 mm 2 m/s 761 mmHg 40%
    19:00 +22°C° 0 mm 1 m/s 761 mmHg 42%
    20:00 +20°C° 0 mm 1 m/s 761 mmHg 45%
    21:00 +20°C° 0 mm 1 m/s 761 mmHg 46%
    22:00 +20°C° 0 mm 1 m/s 761 mmHg 47%
    23:00 +19°C° 0 mm 1 m/s 761 mmHg 48%

    Mâine, 21 Octombrie, Sâmbătă

    Timp Temperatura Precipitaţii Vânt Presiune Umiditate
    00:00 +19°C° 0 mm 1 m/s 761 mmHg 49%
    01:00 +19°C° 0 mm 1 m/s 761 mmHg 50%
    02:00 +18°C° 0 mm 1 m/s 761 mmHg 51%
    03:00 +18°C° 0 mm 1 m/s 761 mmHg 52%
    04:00 +18°C° 0 mm 1 m/s 761 mmHg 53%
    05:00 +16°C° 0 mm 1 m/s 761 mmHg 54%
    06:00 +18°C° 0 mm 1 m/s 761 mmHg 53%
    07:00 +19°C° 0 mm 1 m/s 761 mmHg 51%
    08:00 +20°C° 0 mm 1 m/s 761 mmHg 50%
    09:00 +22°C° 0 mm 1 m/s 761 mmHg 44%
    10:00 +24°C° 0 mm 1 m/s 761 mmHg 38%
    11:00 +26°C° 0 mm 1 m/s 761 mmHg 32%
    12:00 +27°C° 0 mm 1 m/s 761 mmHg 30%
    13:00 +27°C° 0 mm 1 m/s 760 mmHg 28%
    14:00 +28°C° 0 mm 1 m/s 760 mmHg 26%
    15:00 +27°C° 0 mm 1 m/s 760 mmHg 29%
    16:00 +25°C° 0 mm 2 m/s 759 mmHg 33%
    17:00 +24°C° 0 mm 2 m/s 759 mmHg 36%
    18:00 +23°C° 0 mm 2 m/s 759 mmHg 39%
    19:00 +21°C° 0 mm 1 m/s 760 mmHg 41%
    20:00 +20°C° 0 mm 1 m/s 760 mmHg 43%
    21:00 +20°C° 0 mm 1 m/s 760 mmHg 45%
    22:00 +19°C° 0 mm 1 m/s 760 mmHg 46%
    23:00 +19°C° 0 mm 1 m/s 760 mmHg 47%

    Poimâine, 22 Octombrie, Duminică

    Timp Temperatura Precipitaţii Vânt Presiune Umiditate
    00:00 +19°C° 0 mm 1 m/s 759 mmHg 48%
    01:00 +17°C° 0 mm 2 m/s 759 mmHg 49%
    02:00 +17°C° 0 mm 2 m/s 759 mmHg 49%
    03:00 +17°C° 0 mm 2 m/s 759 mmHg 51%
    04:00 +17°C° 0 mm 2 m/s 759 mmHg 52%
    05:00 +16°C° 0 mm 2 m/s 758 mmHg 53%
    06:00 +17°C° 0 mm 2 m/s 759 mmHg 53%
    07:00 +18°C° 0 mm 2 m/s 759 mmHg 53%
    08:00 +18°C° 0 mm 2 m/s 759 mmHg 52%
    09:00 +20°C° 0 mm 2 m/s 759 mmHg 48%
    10:00 +23°C° 0 mm 2 m/s 759 mmHg 43%
    11:00 +25°C° 0 mm 2 m/s 760 mmHg 38%
    12:00 +25°C° 0 mm 2 m/s 759 mmHg 37%
    13:00 +26°C° 0 mm 2 m/s 759 mmHg 35%
    14:00 +26°C° 0 mm 2 m/s 759 mmHg 34%
    15:00 +25°C° 0 mm 2 m/s 759 mmHg 38%
    16:00 +22°C° 0 mm 3 m/s 758 mmHg 43%
    17:00 +21°C° 0 mm 3 m/s 758 mmHg 47%
    18:00 +20°C° 0 mm 3 m/s 759 mmHg 54%
    19:00 +19°C° 0 mm 2 m/s 759 mmHg 61%
    20:00 +17°C° 0 mm 2 m/s 759 mmHg 68%
    21:00 +17°C° 0 mm 2 m/s 759 mmHg 71%
    22:00 +16°C° 0 mm 2 m/s 759 mmHg 74%
    23:00 +16°C° 0 mm 2 m/s 759 mmHg 77%

    23 Octombrie, Luni

    Timp Temperatura Precipitaţii Vânt Presiune Umiditate
    00:00 +16°C° 0 mm 2 m/s 758 mmHg 79%
    01:00 +15°C° 0 mm 2 m/s 758 mmHg 81%
    02:00 +15°C° 0 mm 2 m/s 758 mmHg 83%
    03:00 +15°C° 0 mm 2 m/s 757 mmHg 84%
    04:00 +15°C° 0 mm 2 m/s 757 mmHg 84%
    05:00 +15°C° 0 mm 2 m/s 756 mmHg 85%
    06:00 +15°C° 0 mm 2 m/s 756 mmHg 82%
    07:00 +16°C° 0 mm 2 m/s 756 mmHg 79%
    08:00 +17°C° 0 mm 2 m/s 756 mmHg 76%
    09:00 +18°C° 0 mm 3 m/s 755 mmHg 68%
    10:00 +20°C° 0 mm 3 m/s 755 mmHg 59%
    11:00 +22°C° 0 mm 4 m/s 755 mmHg 50%
    12:00 +22°C° 0 mm 4 m/s 754 mmHg 47%
    13:00 +23°C° 0 mm 4 m/s 753 mmHg 45%
    14:00 +25°C° 0 mm 4 m/s 753 mmHg 42%
    15:00 +23°C° 0 mm 4 m/s 753 mmHg 45%
    16:00 +22°C° 0 mm 4 m/s 752 mmHg 48%
    17:00 +21°C° 0 mm 3 m/s 752 mmHg 52%
    18:00 +20°C° 0 mm 3 m/s 752 mmHg 56%
    19:00 +19°C° 0 mm 3 m/s 752 mmHg 60%
    20:00 +19°C° 0 mm 3 m/s 752 mmHg 64%
    21:00 +18°C° 0,1 mm 2 m/s 752 mmHg 66%
    22:00 +18°C° 0,1 mm 2 m/s 752 mmHg 68%
    23:00 +18°C° 0,1 mm 2 m/s 752 mmHg 69%

    24 Octombrie, Marţi

    Timp Temperatura Precipitaţii Vânt Presiune Umiditate
    00:00 +17°C° 0,1 mm 2 m/s 752 mmHg 72%
    01:00 +17°C° 0,1 mm 2 m/s 752 mmHg 74%
    02:00 +17°C° 0,1 mm 2 m/s 752 mmHg 76%
    03:00 +16°C° 0 mm 2 m/s 751 mmHg 77%
    04:00 +16°C° 0 mm 2 m/s 751 mmHg 78%
    05:00 +16°C° 0 mm 2 m/s 751 mmHg 78%
    06:00 +16°C° 0 mm 3 m/s 751 mmHg 78%
    07:00 +17°C° 0 mm 3 m/s 751 mmHg 77%
    08:00 +17°C° 0 mm 3 m/s 751 mmHg 76%
    09:00 +18°C° 0,1 mm 3 m/s 751 mmHg 72%
    10:00 +19°C° 0,1 mm 3 m/s 751 mmHg 68%
    11:00 +20°C° 0,1 mm 3 m/s 751 mmHg 63%
    12:00 +21°C° 0,1 mm 3 m/s 751 mmHg 59%
    13:00 +21°C° 0,1 mm 3 m/s 751 mmHg 54%
    14:00 +22°C° 0,1 mm 3 m/s 751 mmHg 50%
    15:00 +21°C° 0 mm 4 m/s 751 mmHg 54%
    16:00 +20°C° 0 mm 4 m/s 751 mmHg 58%
    17:00 +19°C° 0 mm 5 m/s 751 mmHg 62%
    18:00 +19°C° 0,1 mm 5 m/s 752 mmHg 69%
    19:00 +17°C° 0,1 mm 5 m/s 752 mmHg 77%
    20:00 +17°C° 0,1 mm 5 m/s 752 mmHg 85%
    21:00 +17°C° 0,1 mm 6 m/s 753 mmHg 86%
    22:00 +17°C° 0,1 mm 6 m/s 753 mmHg 86%
    23:00 +17°C° 0,1 mm 7 m/s 753 mmHg 87%

    25 Octombrie, Miercuri

    Timp Temperatura Precipitaţii Vânt Presiune Umiditate
    00:00 +17°C° 0,2 mm 7 m/s 753 mmHg 87%
    01:00 +17°C° 0,2 mm 7 m/s 753 mmHg 86%
    02:00 +17°C° 0,2 mm 7 m/s 754 mmHg 86%
    03:00 +17°C° 0,3 mm 8 m/s 754 mmHg 85%
    04:00 +17°C° 0,3 mm 8 m/s 754 mmHg 84%
    05:00 +16°C° 0,3 mm 9 m/s 754 mmHg 84%
    06:00 +16°C° 0,2 mm 9 m/s 755 mmHg 83%
    07:00 +16°C° 0,2 mm 10 m/s 756 mmHg 83%
    08:00 +16°C° 0,2 mm 10 m/s 756 mmHg 82%
    09:00 +16°C° 0,4 mm 10 m/s 757 mmHg 82%
    10:00 +14°C° 0,4 mm 10 m/s 757 mmHg 81%
    11:00 +14°C° 0,4 mm 11 m/s 758 mmHg 81%
    12:00 +14°C° 0,1 mm 11 m/s 758 mmHg 80%
    13:00 +14°C° 0,1 mm 11 m/s 758 mmHg 79%
    14:00 +14°C° 0,1 mm 10 m/s 758 mmHg 79%
    15:00 +13°C° 0,2 mm 10 m/s 759 mmHg 79%
    16:00 +13°C° 0,2 mm 10 m/s 759 mmHg 79%
    17:00 +13°C° 0,2 mm 10 m/s 760 mmHg 79%
    18:00 +13°C° 0,2 mm 10 m/s 760 mmHg 78%
    19:00 +12°C° 0,2 mm 10 m/s 761 mmHg 77%
    20:00 +12°C° 0,2 mm 9 m/s 762 mmHg 76%
    21:00 +12°C° 0,3 mm 9 m/s 762 mmHg 74%
    22:00 +11°C° 0,3 mm 9 m/s 762 mmHg 72%
    23:00 +11°C° 0,3 mm 9 m/s 763 mmHg 70%
    Arată mai mult